Regional Weather Roundup
Issued by NWS

Home | Current Version | Previous Version | Graphics & Text | Print | Product List | Glossary On
Versions: 1 2 3 4 5 6 7 8 9 10 11 12 13 14 15 16 17 18 19 20 21 22 23 24 25 26 27 28 29 30 31 32 33 34 35 36 37 38 39 40 41 42 43 44 45 46 47 48 49 50
000
ASUS45 KBOU 031510
RWRCO

WEATHER ROUNDUP FOR COLORADO
NATIONAL WEATHER SERVICE DENVER/BOULDER CO
900 AM MDT FRI JUL 03 2015

NOTE: "FAIR" INDICATES FEW OR NO CLOUDS BELOW 12000 FEET WITH NO
SIGNIFICANT WEATHER AND/OR OBSTRUCTIONS TO VISIBILITY.

COZ001>005-013-030-031-031600-
...NORTHWEST COLORADO...

CITY           SKY/WX    TMP DP  RH WIND       PRES   REMARKS
CRAIG          MOSUNNY   71  49  45 VRB3      30.21S
HAYDEN         SUNNY     66  45  45 E7        30.23S
MEEKER         SUNNY     68  49  50 VRB3      30.22S
MOUNT WERNER   NOT AVBL
STEAMBOAT SPGS SUNNY     64  46  51 CALM      30.26S
WALDEN         SUNNY     55  45  67 SE3       30.36S
$$

COZ006>008-011-031600-
...WEST CENTRAL VALLEYS...

CITY           SKY/WX    TMP DP  RH WIND       PRES   REMARKS
GRAND JUNCTION SUNNY     79  49  34 SE15      30.09R
MONTROSE       MOSUNNY   76  53  44 E9        30.19S
EAGLE          MOSUNNY   70  46  43 CALM      30.27S
RIFLE          SUNNY     74  47  38 W5        30.15F
DELTA          MOSUNNY   79  50  35 S3        30.16R
NUCLA          MOSUNNY   73  50  43 E13G20    30.23S
$$

COZ017>023-064>068-031600-
...SOUTHWEST COLORADO...

CITY           SKY/WX    TMP DP  RH WIND       PRES   REMARKS
DURANGO        PTSUNNY   67  50  54 CALM      30.29R
CORTEZ         SUNNY     74  54  49 VRB7      30.22R
PAGOSA SPRINGS PTSUNNY   65  49  55 CALM      30.36R
TELLURIDE      TSTM      55  50  85 SE13      30.50R
WOLF CREEK PAS NOT AVBL
$$

COZ009-010-012-014-032>034-037-058>063-031600-
...CENTRAL COLORADO...

CITY           SKY/WX    TMP DP  RH WIND       PRES   REMARKS
ASPEN          MOSUNNY   66  48  52 SE12      30.32F
BUENA VISTA    PTSUNNY   56  50  81 SE3       30.37F
COPPER MTN     MOSUNNY   55  36  47 W12       30.64R
BERTHOUD PASS  FAIR      46  36  66 NW13G22   30.67S
COTTONWOOD PAS NOT AVBL
GUNNISON       PTSUNNY   59  46  63 SW6       30.40F
KREMMLING      SUNNY     63  43  48 CALM      30.33S
LEADVILLE      MOSUNNY   53  49  86 W3        30.48S
SALIDA         PTSUNNY   58  51  76 S3        30.43S
SUNLIGHT       MOSUNNY   63  43  48 CALM      30.56F
WILKERSON PASS MOSUNNY   54  43  66 N3        30.60S
$$

COZ069>075-031600-
...SAN LUIS VALLEY/SANGRE DE CRISTO MOUNTAINS...

CITY           SKY/WX    TMP DP  RH WIND       PRES   REMARKS
ALAMOSA        MOSUNNY   59  53  80 CALM      30.34F
LA VETA PASS   SUNNY     54  45  71 MISG      30.52R
SAGUACHE       MOSUNNY   61  52  72 NW12      30.38R
$$

COZ035-036-038>040-031600-
...NORTHERN COLORADO FRONT RANGE...

CITY           SKY/WX    TMP DP  RH WIND       PRES   REMARKS
DENVER INTL AP MOSUNNY   67  57  70 SE7       30.21F
DMNS CITY PARK   N/A     69  59  71 N6        30.21S
AURORA         MOSUNNY   65  57  75 NW3       30.23S
FRONT RANGE AP MOSUNNY   68  59  73 S3        30.22S
ERIE MUNI ARPT CLOUDY    64  60  86 CALM      30.21F FOG
BOULDER MUN AP CLOUDY    64  61  88 CALM      30.21F HAZE
CENTENNIAL     MOSUNNY   64  58  80 W8        30.23F
BROOMFIELD     PTSUNNY   63  59  88 NW5       30.24F FOG
FORT COLLINS   SUNNY     64  59  82 S6        30.22S
LONGMONT       MOSUNNY   70  61  72 CALM      30.22F HAZE
$$

COZ041-046-047-076>085-087-088-031600-
...PIKES PEAK/PALMER DIVIDE AND SOUTHERN FOOTHILLS...

CITY           SKY/WX    TMP DP  RH WIND       PRES   REMARKS
COLO. SPRINGS  MOSUNNY   67  56  67 S8        30.27R
A. F. ACADEMY  MOSUNNY   67  55  64 VRB2      30.27S
ELLICOTT       MOSUNNY  N/A N/A N/A CALM      30.25S
FALCON         MOSUNNY   65  55  69 SE3       30.31S
FORT CARSON    MOSUNNY   67  58  72 VRB1      30.24R
LIMON          SUNNY     69  57  65 S7        30.21S
MONUMENT HILL  NOT AVBL
TRINIDAD       SUNNY     72  58  61 E5        30.22S
$$

COZ042>045-048>051-090-091-031600-
...NORTHEAST COLORADO...

CITY           SKY/WX    TMP DP  RH WIND       PRES   REMARKS
GREELEY ARPT   SUNNY     68  61  77 W5        30.20S
AKRON          SUNNY     67  58  72 N12       30.18S
BURLINGTON     MOSUNNY   72  56  57 N8        30.16R
WRAY           MOSUNNY   74  59  59 CALM      30.12F
STERLING       MOSUNNY   66  61  82 SW5         N/A
HOLYOKE        SUNNY     79  59  50 E5        30.12S
FORT MORGAN    MOSUNNY   72  52  50 CALM      30.18S
$$

COZ086-089-092>099-031600-
...SOUTHEAST COLORADO...

CITY           SKY/WX    TMP DP  RH WIND       PRES   REMARKS
PUEBLO         MOSUNNY   72  57  59 S3        30.18S
LA JUNTA       SUNNY     76  57  51 N10       30.16S
LAMAR          SUNNY     74  62  66 CALM      30.11S
SPRINGFIELD      N/A     77  61  57 VRB5      30.14S
$$


USA.gov is the U.S. government's official web portal to all federal, state and local government web resources and services.